Year,Month,Day,Hour,Minute,Value (Times are PST for temperature in C)
2016,07,25,00,00,17.70
2016,07,25,00,01,17.70
2016,07,25,00,02,17.70
2016,07,25,00,03,17.70
2016,07,25,00,04,17.70
2016,07,25,00,05,17.60
2016,07,25,00,06,17.60
2016,07,25,00,07,17.60
2016,07,25,00,08,17.50
2016,07,25,00,09,17.50
2016,07,25,00,10,17.50
2016,07,25,00,11,17.50
2016,07,25,00,12,17.40
2016,07,25,00,13,17.40
2016,07,25,00,14,17.30
2016,07,25,00,15,17.30
2016,07,25,00,16,17.30
2016,07,25,00,17,17.30
2016,07,25,00,18,17.30
2016,07,25,00,19,17.30
2016,07,25,00,20,17.30
2016,07,25,00,21,17.30
2016,07,25,00,22,17.20
2016,07,25,00,23,17.20
2016,07,25,00,24,17.20
2016,07,25,00,25,17.20
2016,07,25,00,26,17.20
2016,07,25,00,27,17.10
2016,07,25,00,28,17.10
2016,07,25,00,29,17.10
2016,07,25,00,30,17.10
2016,07,25,00,31,17.10
2016,07,25,00,32,17.10
2016,07,25,00,33,17.00
2016,07,25,00,34,17.00
2016,07,25,00,35,17.00
2016,07,25,00,36,17.00
2016,07,25,00,37,17.00
2016,07,25,00,38,17.00
2016,07,25,00,39,16.90
2016,07,25,00,40,16.90
2016,07,25,00,41,16.90
2016,07,25,00,42,16.90
2016,07,25,00,43,16.90
2016,07,25,00,44,16.90
2016,07,25,00,45,16.80
2016,07,25,00,46,16.80
2016,07,25,00,47,16.80
2016,07,25,00,48,16.80
2016,07,25,00,49,16.80
2016,07,25,00,50,16.80
2016,07,25,00,51,16.80
2016,07,25,00,52,16.80
2016,07,25,00,53,16.80
2016,07,25,00,54,16.70
2016,07,25,00,55,16.70
2016,07,25,00,56,16.70
2016,07,25,00,57,16.70
2016,07,25,00,58,16.70
2016,07,25,00,59,16.70
2016,07,25,01,00,16.70
2016,07,25,01,01,16.70
2016,07,25,01,02,16.70
2016,07,25,01,03,16.70
2016,07,25,01,04,16.70
2016,07,25,01,05,16.70
2016,07,25,01,06,16.70
2016,07,25,01,07,16.60
2016,07,25,01,08,16.60
2016,07,25,01,09,16.60
2016,07,25,01,10,16.60
2016,07,25,01,11,16.50
2016,07,25,01,12,16.40
2016,07,25,01,13,16.40
2016,07,25,01,14,16.40
2016,07,25,01,15,16.40
2016,07,25,01,16,16.40
2016,07,25,01,17,16.40
2016,07,25,01,18,16.40
2016,07,25,01,19,16.40
2016,07,25,01,20,16.40
2016,07,25,01,21,16.40
2016,07,25,01,22,16.40
2016,07,25,01,23,16.40
2016,07,25,01,24,16.40
2016,07,25,01,25,16.40
2016,07,25,01,26,16.40
2016,07,25,01,27,16.40
2016,07,25,01,28,16.40
2016,07,25,01,29,16.40
2016,07,25,01,30,16.30
2016,07,25,01,31,16.30
2016,07,25,01,32,16.30
2016,07,25,01,33,16.30
2016,07,25,01,34,16.30
2016,07,25,01,35,16.30
2016,07,25,01,36,16.30
2016,07,25,01,37,16.30
2016,07,25,01,38,16.30
2016,07,25,01,39,16.30
2016,07,25,01,40,16.30
2016,07,25,01,41,16.30
2016,07,25,01,42,16.20
2016,07,25,01,43,16.20
2016,07,25,01,44,16.20
2016,07,25,01,45,16.20
2016,07,25,01,46,16.20
2016,07,25,01,47,16.20
2016,07,25,01,48,16.20
2016,07,25,01,49,16.20
2016,07,25,01,50,16.20
2016,07,25,01,51,16.20
2016,07,25,01,52,16.20
2016,07,25,01,53,16.20
2016,07,25,01,54,16.10
2016,07,25,01,55,16.10
2016,07,25,01,56,16.10
2016,07,25,01,57,16.10
2016,07,25,01,58,16.10
2016,07,25,01,59,16.10
2016,07,25,02,00,16.10
2016,07,25,02,01,16.10
2016,07,25,02,02,15.90
2016,07,25,02,03,15.90
2016,07,25,02,04,15.90
2016,07,25,02,05,15.90
2016,07,25,02,06,15.90
2016,07,25,02,07,15.80
2016,07,25,02,08,15.80
2016,07,25,02,09,15.80
2016,07,25,02,10,15.80
2016,07,25,02,11,15.80
2016,07,25,02,12,15.80
2016,07,25,02,13,15.80
2016,07,25,02,14,15.80
2016,07,25,02,15,15.80
2016,07,25,02,16,15.80
2016,07,25,02,17,15.80
2016,07,25,02,18,15.80
2016,07,25,02,19,15.80
2016,07,25,02,20,15.80
2016,07,25,02,21,15.80
2016,07,25,02,22,15.80
2016,07,25,02,23,15.80
2016,07,25,02,24,15.80
2016,07,25,02,25,15.80
2016,07,25,02,26,15.80
2016,07,25,02,27,15.80
2016,07,25,02,28,15.80
2016,07,25,02,29,15.80
2016,07,25,02,30,15.80
2016,07,25,02,31,15.80
2016,07,25,02,32,15.80
2016,07,25,02,33,15.80
2016,07,25,02,34,15.80
2016,07,25,02,35,15.80
2016,07,25,02,36,15.80
2016,07,25,02,37,15.80
2016,07,25,02,38,15.80
2016,07,25,02,39,15.80
2016,07,25,02,40,15.80
2016,07,25,02,41,15.70
2016,07,25,02,42,15.70
2016,07,25,02,43,15.70
2016,07,25,02,44,15.70
2016,07,25,02,45,15.70
2016,07,25,02,46,15.70
2016,07,25,02,47,15.60
2016,07,25,02,48,15.60
2016,07,25,02,49,15.60
2016,07,25,02,50,15.60
2016,07,25,02,51,15.60
2016,07,25,02,52,15.60
2016,07,25,02,53,15.60
2016,07,25,02,54,15.60
2016,07,25,02,55,15.60
2016,07,25,02,56,15.60
2016,07,25,02,57,15.60
2016,07,25,02,58,15.60
2016,07,25,02,59,15.60
2016,07,25,03,00,15.60
2016,07,25,03,01,15.50
2016,07,25,03,02,15.50
2016,07,25,03,03,15.50
2016,07,25,03,04,15.50
2016,07,25,03,05,15.50
2016,07,25,03,06,15.40
2016,07,25,03,07,15.40
2016,07,25,03,08,15.40
2016,07,25,03,09,15.40
2016,07,25,03,10,15.40
2016,07,25,03,11,15.40
2016,07,25,03,12,15.40
2016,07,25,03,13,15.50
2016,07,25,03,14,15.50
2016,07,25,03,15,15.50
2016,07,25,03,16,15.50
2016,07,25,03,17,15.40
2016,07,25,03,18,15.40
2016,07,25,03,19,15.40
2016,07,25,03,20,15.40
2016,07,25,03,21,15.40
2016,07,25,03,22,15.40
2016,07,25,03,23,15.40
2016,07,25,03,24,15.40
2016,07,25,03,25,15.30
2016,07,25,03,26,15.30
2016,07,25,03,27,15.30
2016,07,25,03,28,15.30
2016,07,25,03,29,15.30
2016,07,25,03,30,15.30
2016,07,25,03,31,15.30
2016,07,25,03,32,15.30
2016,07,25,03,33,15.30
2016,07,25,03,34,15.20
2016,07,25,03,35,15.20
2016,07,25,03,36,15.20
2016,07,25,03,37,15.10
2016,07,25,03,38,15.10
2016,07,25,03,39,15.10
2016,07,25,03,40,15.00
2016,07,25,03,41,15.00
2016,07,25,03,42,15.00
2016,07,25,03,43,15.00
2016,07,25,03,44,15.00
2016,07,25,03,45,15.00
2016,07,25,03,46,15.00
2016,07,25,03,47,15.10
2016,07,25,03,48,15.10
2016,07,25,03,49,15.00
2016,07,25,03,50,15.00
2016,07,25,03,51,15.10
2016,07,25,03,52,15.10
2016,07,25,03,53,15.00
2016,07,25,03,54,15.00
2016,07,25,03,55,15.00
2016,07,25,03,56,15.00
2016,07,25,03,57,15.00
2016,07,25,03,58,14.90
2016,07,25,03,59,14.90
2016,07,25,04,00,14.90
2016,07,25,04,01,14.90
2016,07,25,04,02,14.80
2016,07,25,04,03,14.80
2016,07,25,04,04,14.80
2016,07,25,04,05,14.80
2016,07,25,04,06,14.90
2016,07,25,04,07,14.90
2016,07,25,04,08,14.90
2016,07,25,04,09,14.90
2016,07,25,04,10,14.90
2016,07,25,04,11,14.90
2016,07,25,04,12,14.90
2016,07,25,04,13,14.90
2016,07,25,04,14,14.90
2016,07,25,04,15,14.90
2016,07,25,04,16,15.00
2016,07,25,04,17,15.00
2016,07,25,04,18,15.00
2016,07,25,04,19,15.00
2016,07,25,04,20,15.00
2016,07,25,04,21,15.00
2016,07,25,04,22,15.00
2016,07,25,04,23,15.00
2016,07,25,04,24,15.00
2016,07,25,04,25,15.00
2016,07,25,04,26,15.00
2016,07,25,04,27,15.00
2016,07,25,04,28,15.00
2016,07,25,04,29,15.00
2016,07,25,04,30,15.00
2016,07,25,04,31,14.90
2016,07,25,04,32,14.90
2016,07,25,04,33,14.90
2016,07,25,04,34,14.90
2016,07,25,04,35,14.90
2016,07,25,04,36,14.90
2016,07,25,04,37,14.90
2016,07,25,04,38,14.90
2016,07,25,04,39,14.80
2016,07,25,04,40,14.80
2016,07,25,04,41,14.80
2016,07,25,04,42,14.80
2016,07,25,04,43,14.80
2016,07,25,04,44,14.80
2016,07,25,04,45,14.80
2016,07,25,04,46,14.80
2016,07,25,04,47,14.80
2016,07,25,04,48,14.80
2016,07,25,04,49,14.80
2016,07,25,04,50,14.80
2016,07,25,04,51,14.80
2016,07,25,04,52,14.80
2016,07,25,04,53,14.80
2016,07,25,04,54,14.80
2016,07,25,04,55,14.80
2016,07,25,04,56,14.80
2016,07,25,04,57,14.80
2016,07,25,04,58,14.80
2016,07,25,04,59,14.80
2016,07,25,05,00,14.80
2016,07,25,05,01,14.80
2016,07,25,05,02,14.70
2016,07,25,05,03,14.70
2016,07,25,05,04,14.70
2016,07,25,05,05,14.70
2016,07,25,05,06,14.70
2016,07,25,05,07,14.70
2016,07,25,05,08,14.70
2016,07,25,05,09,14.70
2016,07,25,05,10,14.70
2016,07,25,05,11,14.70
2016,07,25,05,12,14.70
2016,07,25,05,13,14.70
2016,07,25,05,14,14.70
2016,07,25,05,15,14.70
2016,07,25,05,16,14.70
2016,07,25,05,17,14.70
2016,07,25,05,18,14.70
2016,07,25,05,19,14.70
2016,07,25,05,20,14.70
2016,07,25,05,21,14.70
2016,07,25,05,22,14.80
2016,07,25,05,23,14.80
2016,07,25,05,24,14.80
2016,07,25,05,25,14.80
2016,07,25,05,26,14.80
2016,07,25,05,27,14.80
2016,07,25,05,28,14.80
2016,07,25,05,29,14.80
2016,07,25,05,30,14.80
2016,07,25,05,31,14.80
2016,07,25,05,32,14.80
2016,07,25,05,33,14.80
2016,07,25,05,34,14.80
2016,07,25,05,35,14.80
2016,07,25,05,36,14.80
2016,07,25,05,37,14.80
2016,07,25,05,38,14.80
2016,07,25,05,39,14.80
2016,07,25,05,40,14.80
2016,07,25,05,41,14.80
2016,07,25,05,42,14.80
2016,07,25,05,43,14.80
2016,07,25,05,44,14.80
2016,07,25,05,45,14.80
2016,07,25,05,46,14.80
2016,07,25,05,47,14.80
2016,07,25,05,48,14.80
2016,07,25,05,49,14.80
2016,07,25,05,50,14.80
2016,07,25,05,51,14.80
2016,07,25,05,52,14.80
2016,07,25,05,53,14.80
2016,07,25,05,54,14.80
2016,07,25,05,55,14.80
2016,07,25,05,56,14.80
2016,07,25,05,57,14.80
2016,07,25,05,58,14.90
2016,07,25,05,59,14.90
2016,07,25,06,00,14.80
2016,07,25,06,01,14.80
2016,07,25,06,02,14.80
2016,07,25,06,03,14.80
2016,07,25,06,04,14.80
2016,07,25,06,05,14.90
2016,07,25,06,06,14.90
2016,07,25,06,07,14.90
2016,07,25,06,08,14.90
2016,07,25,06,09,14.90
2016,07,25,06,10,15.00
2016,07,25,06,11,15.00
2016,07,25,06,12,15.00
2016,07,25,06,13,15.00
2016,07,25,06,14,15.10
2016,07,25,06,15,15.10
2016,07,25,06,16,15.10
2016,07,25,06,17,15.20
2016,07,25,06,18,15.30
2016,07,25,06,19,15.40
2016,07,25,06,20,15.40
2016,07,25,06,21,15.50
2016,07,25,06,22,15.60
2016,07,25,06,23,15.70
2016,07,25,06,24,15.80
2016,07,25,06,25,15.80
2016,07,25,06,26,15.90
2016,07,25,06,27,16.00
2016,07,25,06,28,16.10
2016,07,25,06,29,16.10
2016,07,25,06,30,16.10
2016,07,25,06,31,16.20
2016,07,25,06,32,16.30
2016,07,25,06,33,16.30
2016,07,25,06,34,16.40
2016,07,25,06,35,16.40
2016,07,25,06,36,16.40
2016,07,25,06,37,16.40
2016,07,25,06,38,16.50
2016,07,25,06,39,16.60
2016,07,25,06,40,16.60
2016,07,25,06,41,16.60
2016,07,25,06,42,16.60
2016,07,25,06,43,16.60
2016,07,25,06,44,16.60
2016,07,25,06,45,16.60
2016,07,25,06,46,16.50
2016,07,25,06,47,16.40
2016,07,25,06,48,16.50
2016,07,25,06,49,16.60
2016,07,25,06,50,16.60
2016,07,25,06,51,16.60
2016,07,25,06,52,16.60
2016,07,25,06,53,16.60
2016,07,25,06,54,16.60
2016,07,25,06,55,16.70
2016,07,25,06,56,16.70
2016,07,25,06,57,16.70
2016,07,25,06,58,16.70
2016,07,25,06,59,16.70
2016,07,25,07,00,16.70
2016,07,25,07,01,16.80
2016,07,25,07,02,16.80
2016,07,25,07,03,16.90
2016,07,25,07,04,16.90
2016,07,25,07,05,17.00
2016,07,25,07,06,17.00
2016,07,25,07,07,17.10
2016,07,25,07,08,17.10
2016,07,25,07,09,17.20
2016,07,25,07,10,17.20
2016,07,25,07,11,17.20
2016,07,25,07,12,17.20
2016,07,25,07,13,17.20
2016,07,25,07,14,17.30
2016,07,25,07,15,17.30
2016,07,25,07,16,17.30
2016,07,25,07,17,17.20
2016,07,25,07,18,17.20
2016,07,25,07,19,17.20
2016,07,25,07,20,17.20
2016,07,25,07,21,17.20
2016,07,25,07,22,17.20
2016,07,25,07,23,17.30
2016,07,25,07,24,17.30
2016,07,25,07,25,17.30
2016,07,25,07,26,17.30
2016,07,25,07,27,17.30
2016,07,25,07,28,17.40
2016,07,25,07,29,17.40
2016,07,25,07,30,17.50
2016,07,25,07,31,17.50
2016,07,25,07,32,17.60
2016,07,25,07,33,17.60
2016,07,25,07,34,17.70
2016,07,25,07,35,17.70
2016,07,25,07,36,17.80
2016,07,25,07,37,17.80
2016,07,25,07,38,17.80
2016,07,25,07,39,17.80
2016,07,25,07,40,17.80
2016,07,25,07,41,17.80
2016,07,25,07,42,17.80
2016,07,25,07,43,17.90
2016,07,25,07,44,17.90
2016,07,25,07,45,17.90
2016,07,25,07,46,17.90
2016,07,25,07,47,17.90
2016,07,25,07,48,17.90
2016,07,25,07,49,18.00
2016,07,25,07,50,18.10
2016,07,25,07,51,18.10
2016,07,25,07,52,18.20
2016,07,25,07,53,18.20
2016,07,25,07,54,18.20
2016,07,25,07,55,18.20
2016,07,25,07,56,18.30
2016,07,25,07,57,18.40
2016,07,25,07,58,18.50
2016,07,25,07,59,18.60
2016,07,25,08,00,18.70
2016,07,25,08,01,18.80
2016,07,25,08,02,18.90
2016,07,25,08,03,19.00
2016,07,25,08,04,19.10
2016,07,25,08,05,19.20
2016,07,25,08,06,19.30
2016,07,25,08,07,19.30
2016,07,25,08,08,19.40
2016,07,25,08,09,19.40
2016,07,25,08,10,19.50
2016,07,25,08,11,19.50
2016,07,25,08,12,19.60
2016,07,25,08,13,19.60
2016,07,25,08,14,19.70
2016,07,25,08,15,19.80
2016,07,25,08,16,19.90
2016,07,25,08,17,19.90
2016,07,25,08,18,19.90
2016,07,25,08,19,20.00
2016,07,25,08,20,20.10
2016,07,25,08,21,20.20
2016,07,25,08,22,20.20
2016,07,25,08,23,20.30
2016,07,25,08,24,20.30
2016,07,25,08,25,20.40
2016,07,25,08,26,20.40
2016,07,25,08,27,20.50
2016,07,25,08,28,20.50
2016,07,25,08,29,20.60
2016,07,25,08,30,20.70
2016,07,25,08,31,20.80
2016,07,25,08,32,20.80
2016,07,25,08,33,20.90
2016,07,25,08,34,21.00
2016,07,25,08,35,21.00
2016,07,25,08,36,21.00
2016,07,25,08,37,21.00
2016,07,25,08,38,21.00
2016,07,25,08,39,21.00
2016,07,25,08,40,21.00
2016,07,25,08,41,20.90
2016,07,25,08,42,20.90
2016,07,25,08,43,20.90
2016,07,25,08,44,20.90
2016,07,25,08,45,21.00
2016,07,25,08,46,21.00
2016,07,25,08,47,21.00
2016,07,25,08,48,21.00
2016,07,25,08,49,21.00
2016,07,25,08,50,21.00
2016,07,25,08,51,21.10
2016,07,25,08,52,21.10
2016,07,25,08,53,21.10
2016,07,25,08,54,21.10
2016,07,25,08,55,21.20
2016,07,25,08,56,21.20
2016,07,25,08,57,21.30
2016,07,25,08,58,21.30
2016,07,25,08,59,21.40
2016,07,25,09,00,21.50
2016,07,25,09,01,21.60
2016,07,25,09,02,21.70
2016,07,25,09,03,21.80
2016,07,25,09,04,22.00
2016,07,25,09,05,22.00
2016,07,25,09,06,22.10
2016,07,25,09,07,22.10
2016,07,25,09,08,22.10
2016,07,25,09,09,22.10
2016,07,25,09,10,22.10
2016,07,25,09,11,22.20
2016,07,25,09,12,22.20
2016,07,25,09,13,22.30
2016,07,25,09,14,22.30
2016,07,25,09,15,22.30
2016,07,25,09,16,22.20
2016,07,25,09,17,22.20
2016,07,25,09,18,22.20
2016,07,25,09,19,22.30
2016,07,25,09,20,22.30
2016,07,25,09,21,22.30
2016,07,25,09,22,22.40
2016,07,25,09,23,22.50
2016,07,25,09,24,22.50
2016,07,25,09,25,22.60
2016,07,25,09,26,22.70
2016,07,25,09,27,22.70
2016,07,25,09,28,22.70
2016,07,25,09,29,22.70
2016,07,25,09,30,22.70
2016,07,25,09,31,22.60
2016,07,25,09,32,22.60
2016,07,25,09,33,22.50
2016,07,25,09,34,22.50
2016,07,25,09,35,22.50
2016,07,25,09,36,22.50
2016,07,25,09,37,22.50
2016,07,25,09,38,22.50
2016,07,25,09,39,22.50
2016,07,25,09,40,22.50
2016,07,25,09,41,22.50
2016,07,25,09,42,22.50
2016,07,25,09,43,22.50
2016,07,25,09,44,22.50
2016,07,25,09,45,22.50
2016,07,25,09,46,22.50
2016,07,25,09,47,22.60
2016,07,25,09,48,22.60
2016,07,25,09,49,22.60
2016,07,25,09,50,22.60
2016,07,25,09,51,22.60
2016,07,25,09,52,22.70
2016,07,25,09,53,22.70
2016,07,25,09,54,22.70
2016,07,25,09,55,22.70
2016,07,25,09,56,22.70
2016,07,25,09,57,22.70
2016,07,25,09,58,22.70
2016,07,25,09,59,22.90
2016,07,25,10,00,23.00
2016,07,25,10,01,23.10
2016,07,25,10,02,23.20
2016,07,25,10,03,23.30
2016,07,25,10,04,23.40
2016,07,25,10,05,23.50
2016,07,25,10,06,23.60
2016,07,25,10,07,23.70
2016,07,25,10,08,23.70
2016,07,25,10,09,23.70
2016,07,25,10,10,23.70
2016,07,25,10,11,23.80
2016,07,25,10,12,23.90
2016,07,25,10,13,24.00
2016,07,25,10,14,24.10
2016,07,25,10,15,24.20
2016,07,25,10,16,24.30
2016,07,25,10,17,24.30
2016,07,25,10,18,24.40
2016,07,25,10,19,24.50
2016,07,25,10,20,24.50
2016,07,25,10,21,24.50
2016,07,25,10,22,24.50
2016,07,25,10,23,24.50
2016,07,25,10,24,24.60
2016,07,25,10,25,24.70
2016,07,25,10,26,24.80
2016,07,25,10,27,24.80
2016,07,25,10,28,24.90
2016,07,25,10,29,24.90
2016,07,25,10,30,24.80
2016,07,25,10,31,24.90
2016,07,25,10,32,24.90
2016,07,25,10,33,24.80
2016,07,25,10,34,24.80
2016,07,25,10,35,24.80
2016,07,25,10,36,24.90
2016,07,25,10,37,24.90
2016,07,25,10,38,24.90
2016,07,25,10,39,24.80
2016,07,25,10,40,24.70
2016,07,25,10,41,24.70
2016,07,25,10,42,24.80
2016,07,25,10,43,24.80
2016,07,25,10,44,25.00
2016,07,25,10,45,25.00
2016,07,25,10,46,24.90
2016,07,25,10,47,24.80
2016,07,25,10,48,24.90
2016,07,25,10,49,24.80
2016,07,25,10,50,24.80
2016,07,25,10,51,24.80
2016,07,25,10,52,24.80
2016,07,25,10,53,24.80
2016,07,25,10,54,24.90
2016,07,25,10,55,25.00
2016,07,25,10,56,25.00
2016,07,25,10,57,25.00
2016,07,25,10,58,24.90
2016,07,25,10,59,24.90
2016,07,25,11,00,24.90
2016,07,25,11,01,25.00
2016,07,25,11,02,25.10
2016,07,25,11,03,25.20
2016,07,25,11,04,25.30
2016,07,25,11,05,25.40
2016,07,25,11,06,25.50
2016,07,25,11,07,25.60
2016,07,25,11,08,25.60
2016,07,25,11,09,25.60
2016,07,25,11,10,25.80
2016,07,25,11,11,25.90
2016,07,25,11,12,25.90
2016,07,25,11,13,25.80
2016,07,25,11,14,25.80
2016,07,25,11,15,25.70
2016,07,25,11,16,25.60
2016,07,25,11,17,25.40
2016,07,25,11,18,25.30
2016,07,25,11,19,25.20
2016,07,25,11,20,25.20
2016,07,25,11,21,25.20
2016,07,25,11,22,25.20
2016,07,25,11,23,25.20
2016,07,25,11,24,25.20
2016,07,25,11,25,24.80
2016,07,25,11,26,24.60
2016,07,25,11,27,24.70
2016,07,25,11,28,24.80
2016,07,25,11,29,24.90
2016,07,25,11,30,24.90
2016,07,25,11,31,25.00
2016,07,25,11,32,25.10
2016,07,25,11,33,25.20
2016,07,25,11,34,25.20
2016,07,25,11,35,25.30
2016,07,25,11,36,25.30
2016,07,25,11,37,25.30
2016,07,25,11,38,25.20
2016,07,25,11,39,25.10
2016,07,25,11,40,25.10
2016,07,25,11,41,25.10
2016,07,25,11,42,25.00
2016,07,25,11,43,25.10
2016,07,25,11,44,25.00
2016,07,25,11,45,25.00
2016,07,25,11,46,25.00
2016,07,25,11,47,25.00
2016,07,25,11,48,25.00
2016,07,25,11,49,25.10
2016,07,25,11,50,25.20
2016,07,25,11,51,25.20
2016,07,25,11,52,25.20
2016,07,25,11,53,25.10
2016,07,25,11,54,25.00
2016,07,25,11,55,24.90
2016,07,25,11,56,25.00
2016,07,25,11,57,25.10
2016,07,25,11,58,25.20
2016,07,25,11,59,25.30
2016,07,25,12,00,25.40
2016,07,25,12,01,25.40
2016,07,25,12,02,25.40
2016,07,25,12,03,25.40
2016,07,25,12,04,25.40
2016,07,25,12,05,25.40
2016,07,25,12,06,25.60
2016,07,25,12,07,25.80
2016,07,25,12,08,25.90
2016,07,25,12,09,25.90
2016,07,25,12,10,25.90
2016,07,25,12,11,25.70
2016,07,25,12,12,25.40
2016,07,25,12,13,25.40
2016,07,25,12,14,25.40
2016,07,25,12,15,25.50
2016,07,25,12,16,25.50
2016,07,25,12,17,25.60
2016,07,25,12,18,25.70
2016,07,25,12,19,25.80
2016,07,25,12,20,25.90
2016,07,25,12,21,25.90
2016,07,25,12,22,25.90
2016,07,25,12,23,25.90
2016,07,25,12,24,25.80
2016,07,25,12,25,25.90
2016,07,25,12,26,25.90
2016,07,25,12,27,25.90
2016,07,25,12,28,25.90
2016,07,25,12,29,25.90
2016,07,25,12,30,25.70
2016,07,25,12,31,25.60
2016,07,25,12,32,25.60
2016,07,25,12,33,25.70
2016,07,25,12,34,25.80
2016,07,25,12,35,25.80
2016,07,25,12,36,25.80
2016,07,25,12,37,25.70
2016,07,25,12,38,25.60
2016,07,25,12,39,25.60
2016,07,25,12,40,25.50
2016,07,25,12,41,25.30
2016,07,25,12,42,25.20
2016,07,25,12,43,25.10
2016,07,25,12,44,24.90
2016,07,25,12,45,24.90
2016,07,25,12,46,24.80
2016,07,25,12,47,24.90
2016,07,25,12,48,25.00
2016,07,25,12,49,24.90
2016,07,25,12,50,24.90
2016,07,25,12,51,24.80
2016,07,25,12,52,24.80
2016,07,25,12,53,24.80
2016,07,25,12,54,24.90
2016,07,25,12,55,24.90
2016,07,25,12,56,25.00
2016,07,25,12,57,25.10
2016,07,25,12,58,25.20
2016,07,25,12,59,25.20
2016,07,25,13,00,25.30
2016,07,25,13,01,25.30
2016,07,25,13,02,25.30
2016,07,25,13,03,25.30
2016,07,25,13,04,25.20
2016,07,25,13,05,25.20
2016,07,25,13,06,25.20
2016,07,25,13,07,25.20
2016,07,25,13,08,25.20
2016,07,25,13,09,25.10
2016,07,25,13,10,25.10
2016,07,25,13,11,25.00
2016,07,25,13,12,25.00
2016,07,25,13,13,24.90
2016,07,25,13,14,24.80
2016,07,25,13,15,24.80
2016,07,25,13,16,24.80
2016,07,25,13,17,24.80
2016,07,25,13,18,24.80
2016,07,25,13,19,24.90
2016,07,25,13,20,24.90
2016,07,25,13,21,25.00
2016,07,25,13,22,25.00
2016,07,25,13,23,25.10
2016,07,25,13,24,25.20
2016,07,25,13,25,25.20
2016,07,25,13,26,25.10
2016,07,25,13,27,25.20
2016,07,25,13,28,25.30
2016,07,25,13,29,25.30
2016,07,25,13,30,25.30
2016,07,25,13,31,25.30
2016,07,25,13,32,25.40
2016,07,25,13,33,25.50
2016,07,25,13,34,25.60
2016,07,25,13,35,25.60
2016,07,25,13,36,25.60
2016,07,25,13,37,25.60
2016,07,25,13,38,25.50
2016,07,25,13,39,25.60
2016,07,25,13,40,25.70
2016,07,25,13,41,25.70
2016,07,25,13,42,25.80
2016,07,25,13,43,25.90
2016,07,25,13,44,26.00
2016,07,25,13,45,26.20
2016,07,25,13,46,26.20
2016,07,25,13,47,26.20
2016,07,25,13,48,26.20
2016,07,25,13,49,26.20
2016,07,25,13,50,26.20
2016,07,25,13,51,26.10
2016,07,25,13,52,25.90
2016,07,25,13,53,25.80
2016,07,25,13,54,25.80
2016,07,25,13,55,25.90
2016,07,25,13,56,25.90
2016,07,25,13,57,25.80
2016,07,25,13,58,25.70
2016,07,25,13,59,25.70
2016,07,25,14,00,25.60
2016,07,25,14,01,25.50
2016,07,25,14,02,25.50
2016,07,25,14,03,25.40
2016,07,25,14,04,25.40
2016,07,25,14,05,25.30
2016,07,25,14,06,25.20
2016,07,25,14,07,25.20
2016,07,25,14,08,25.20
2016,07,25,14,09,25.20
2016,07,25,14,10,25.30
2016,07,25,14,11,25.50
2016,07,25,14,12,25.60
2016,07,25,14,13,25.80
2016,07,25,14,14,25.80
2016,07,25,14,15,25.70
2016,07,25,14,16,25.70
2016,07,25,14,17,25.70
2016,07,25,14,18,25.70
2016,07,25,14,19,25.70
2016,07,25,14,20,25.60
2016,07,25,14,21,25.60
2016,07,25,14,22,25.50
2016,07,25,14,23,25.50
2016,07,25,14,24,25.40
2016,07,25,14,25,25.30
2016,07,25,14,26,25.20
2016,07,25,14,27,25.10
2016,07,25,14,28,25.10
2016,07,25,14,29,25.20
2016,07,25,14,30,25.30
2016,07,25,14,31,25.30
2016,07,25,14,32,25.30
2016,07,25,14,33,25.30
2016,07,25,14,34,25.20
2016,07,25,14,35,25.20
2016,07,25,14,36,25.30
2016,07,25,14,37,25.40
2016,07,25,14,38,25.30
2016,07,25,14,39,25.30
2016,07,25,14,40,25.40
2016,07,25,14,41,25.40
2016,07,25,14,42,25.40
2016,07,25,14,43,25.40
2016,07,25,14,44,25.40
2016,07,25,14,45,25.20
2016,07,25,14,46,25.10
2016,07,25,14,47,25.10
2016,07,25,14,48,25.00
2016,07,25,14,49,25.00
2016,07,25,14,50,25.00
2016,07,25,14,51,25.00
2016,07,25,14,52,25.10
2016,07,25,14,53,25.10
2016,07,25,14,54,25.10
2016,07,25,14,55,25.20
2016,07,25,14,56,25.30
2016,07,25,14,57,25.40
2016,07,25,14,58,25.40
2016,07,25,14,59,25.30
2016,07,25,15,00,25.20
2016,07,25,15,01,25.10
2016,07,25,15,02,25.10
2016,07,25,15,03,25.10
2016,07,25,15,04,24.90
2016,07,25,15,05,24.90
2016,07,25,15,06,24.80
2016,07,25,15,07,24.90
2016,07,25,15,08,24.90
2016,07,25,15,09,24.90
2016,07,25,15,10,24.90
2016,07,25,15,11,24.80
2016,07,25,15,12,24.80
2016,07,25,15,13,24.70
2016,07,25,15,14,24.80
2016,07,25,15,15,24.90
2016,07,25,15,16,24.90
2016,07,25,15,17,24.90
2016,07,25,15,18,25.00
2016,07,25,15,19,25.10
2016,07,25,15,20,25.20
2016,07,25,15,21,25.30
2016,07,25,15,22,25.40
2016,07,25,15,23,25.40
2016,07,25,15,24,25.40
2016,07,25,15,25,25.30
2016,07,25,15,26,25.10
2016,07,25,15,27,25.00
2016,07,25,15,28,25.10
2016,07,25,15,29,25.10
2016,07,25,15,30,25.00
2016,07,25,15,31,25.00
2016,07,25,15,32,25.10
2016,07,25,15,33,25.20
2016,07,25,15,34,25.30
2016,07,25,15,35,25.40
2016,07,25,15,36,25.50
2016,07,25,15,37,25.60
2016,07,25,15,38,25.50
2016,07,25,15,39,25.50
2016,07,25,15,40,25.50
2016,07,25,15,41,25.40
2016,07,25,15,42,25.30
2016,07,25,15,43,25.40
2016,07,25,15,44,25.40
2016,07,25,15,45,25.50
2016,07,25,15,46,25.60
2016,07,25,15,47,25.70
2016,07,25,15,48,25.70
2016,07,25,15,49,25.70
2016,07,25,15,50,25.80
2016,07,25,15,51,25.80
2016,07,25,15,52,25.80
2016,07,25,15,53,25.80
2016,07,25,15,54,25.70
2016,07,25,15,55,25.70
2016,07,25,15,56,25.70
2016,07,25,15,57,25.70
2016,07,25,15,58,25.60
2016,07,25,15,59,25.60
2016,07,25,16,00,25.60
2016,07,25,16,01,25.60
2016,07,25,16,02,25.60
2016,07,25,16,03,25.60
2016,07,25,16,04,25.70
2016,07,25,16,05,25.80
2016,07,25,16,06,25.90
2016,07,25,16,07,25.90
2016,07,25,16,08,25.90
2016,07,25,16,09,26.00
2016,07,25,16,10,26.10
2016,07,25,16,11,26.30
2016,07,25,16,12,26.40
2016,07,25,16,13,26.50
2016,07,25,16,14,26.70
2016,07,25,16,15,26.70
2016,07,25,16,16,26.70
2016,07,25,16,17,26.60
2016,07,25,16,18,26.60
2016,07,25,16,19,26.60
2016,07,25,16,20,26.60
2016,07,25,16,21,26.70
2016,07,25,16,22,26.80
2016,07,25,16,23,26.90
2016,07,25,16,24,27.00
2016,07,25,16,25,27.10
2016,07,25,16,26,27.10
2016,07,25,16,27,27.00
2016,07,25,16,28,26.90
2016,07,25,16,29,26.90
2016,07,25,16,30,26.80
2016,07,25,16,31,26.80
2016,07,25,16,32,26.80
2016,07,25,16,33,26.90
2016,07,25,16,34,27.00
2016,07,25,16,35,27.20
2016,07,25,16,36,27.30
2016,07,25,16,37,27.30
2016,07,25,16,38,27.30
2016,07,25,16,39,27.30
2016,07,25,16,40,27.30
2016,07,25,16,41,27.30
2016,07,25,16,42,27.20
2016,07,25,16,43,27.00
2016,07,25,16,44,26.90
2016,07,25,16,45,26.90
2016,07,25,16,46,26.90
2016,07,25,16,47,26.90
2016,07,25,16,48,27.00
2016,07,25,16,49,27.10
2016,07,25,16,50,27.10
2016,07,25,16,51,27.20
2016,07,25,16,52,27.30
2016,07,25,16,53,27.40
2016,07,25,16,54,27.50
2016,07,25,16,55,27.60
2016,07,25,16,56,27.60
2016,07,25,16,57,27.60
2016,07,25,16,58,27.60
2016,07,25,16,59,27.40
2016,07,25,17,00,27.40
2016,07,25,17,01,27.40
2016,07,25,17,02,27.40
2016,07,25,17,03,27.40
2016,07,25,17,04,27.40
2016,07,25,17,05,27.30
2016,07,25,17,06,27.30
2016,07,25,17,07,27.30
2016,07,25,17,08,27.30
2016,07,25,17,09,27.20
2016,07,25,17,10,27.20
2016,07,25,17,11,27.20
2016,07,25,17,12,27.10
2016,07,25,17,13,27.00
2016,07,25,17,14,26.90
2016,07,25,17,15,26.80
2016,07,25,17,16,26.80
2016,07,25,17,17,26.70
2016,07,25,17,18,26.70
2016,07,25,17,19,26.70